GW2464 Weather Reports


time (UTC)temp
C
wind
direction
speed
KPH
gust
KPH
rain 1hr
cm
rain 24hr
cm
rain mn
cm
humidity
%
barometer
mb
20260510071638 7 341 0.0 0.0 0.00 0.00 0.00 99 1009.7
20260510071136 7 10 0.0 0.0 0.00 0.00 0.00 99 1010.0
20260510070633 7 10 0.0 0.0 0.00 0.00 0.00 99 1010.3
20260510070131 7 9 0.0 0.0 0.00 0.00 0.00 99 1010.3
20260510065626 7 15 0.0 1.6 0.00 0.00 0.00 99 1010.2
20260510065123 7 329 1.6 1.6 0.00 0.00 0.00 99 1010.8
20260510064619 8 6 0.0 0.0 0.00 0.00 0.00 99 1010.6
20260510064116 8 358 0.0 0.0 0.00 0.00 0.00 99 1010.6
20260510063612 7 352 0.0 0.0 0.00 0.00 0.00 99 1010.9
20260510063110 7 2 0.0 0.0 0.00 0.00 0.00 99 1011.0
20260510062605 7 1 0.0 0.0 0.00 0.00 0.00 99 1011.0
20260510062101 7 357 0.0 1.6 0.00 0.00 0.00 99 1011.1
20260510061557 7 356 0.0 0.0 0.00 0.00 0.00 99 1011.1
20260510061055 7 9 0.0 0.0 0.00 0.00 0.00 99 1011.2
20260510060550 7 10 0.0 0.0 0.00 0.00 0.00 99 1011.1
20260510060047 7 7 1.6 1.6 0.00 0.00 0.00 99 1011.2
20260510055543 7 7 0.0 0.0 0.00 0.00 0.00 99 1011.3
20260510055042 6 359 0.0 0.0 0.00 0.00 0.00 99 1011.3
20260510054537 6 351 1.6 1.6 0.00 0.00 0.00 99 1011.6
20260510054032 6 16 1.6 1.6 0.00 0.00 0.00 99 1011.4
20260510053527 6 352 1.6 1.6 0.00 0.00 0.00 99 1011.6
20260510053024 6 7 0.0 0.0 0.00 0.00 0.00 99 1011.6
20260510052520 6 75 3.2 3.2 0.00 0.00 0.00 99 1011.4
20260510052016 5 355 0.0 0.0 0.00 0.00 0.00 99 1011.4
20260510051512 5 4 0.0 0.0 0.00 0.00 0.00 99 1011.4
20260510051009 5 350 1.6 1.6 0.00 0.00 0.00 99 1011.2
20260510050506 5 352 0.0 1.6 0.00 0.00 0.00 99 1010.7
20260510050003 5 352 0.0 0.0 0.00 0.00 0.00 99 1010.6
20260510045500 5 352 1.6 1.6 0.00 0.00 0.00 99 1010.3
20260510044956 5 351 0.0 0.0 0.00 0.00 0.00 99 1010.3
20260510044453 5 0 0.0 0.0 0.00 0.00 0.00 99 1010.3
20260510043950 5 354 0.0 0.0 0.00 0.00 0.00 99 1010.6
20260510043445 5 354 0.0 0.0 0.00 0.00 0.00 99 1010.7
20260510042944 5 352 0.0 0.0 0.00 0.00 0.00 99 1010.6
20260510042440 5 352 1.6 1.6 0.00 0.00 0.00 99 1010.6
20260510041930 5 10 1.6 1.6 0.00 0.00 0.00 99 1010.6
20260510041427 5 348 0.0 0.0 0.00 0.00 0.00 99 1010.4
20260510040925 5 18 1.6 1.6 0.00 0.00 0.00 99 1010.6
20260510040421 5 357 0.0 0.0 0.00 0.00 0.00 99 1010.7
20260510035916 5 6 1.6 1.6 0.00 2.13 2.13 99 1010.6
20260510035413 5 10 0.0 1.6 0.00 2.13 2.13 99 1010.0
20260510034908 5 356 0.0 1.6 0.00 2.13 2.13 99 1010.1
20260510034407 6 10 1.6 1.6 0.00 2.13 2.13 99 1009.8
20260510033902 6 10 0.0 0.0 0.00 2.13 2.13 99 1009.9
20260510033359 5 16 1.6 1.6 0.00 2.13 2.13 99 1009.7
20260510032855 5 5 1.6 1.6 0.00 2.13 2.13 99 1009.6
20260510032353 5 8 0.0 1.6 0.00 2.13 2.13 99 1010.1
20260510031848 6 5 1.6 1.6 0.00 2.13 2.13 99 1009.8
20260510031344 6 3 1.6 1.6 0.00 2.13 2.13 99 1010.0
20260510030843 6 10 0.0 1.6 0.00 2.13 2.13 99 1009.8
20260510030340 6 2 0.0 1.6 0.00 2.13 2.13 99 1010.2
20260510025838 6 1 0.0 0.0 0.00 2.13 2.13 99 1010.0
20260510025335 6 5 0.0 1.6 0.00 2.13 2.13 99 1010.1
20260510024832 5 359 0.0 0.0 0.00 2.13 2.13 99 1010.0
20260510024329 6 356 0.0 0.0 0.00 2.13 2.13 99 1009.8
20260510023825 6 4 0.0 1.6 0.00 2.13 2.13 99 1010.0
20260510023321 6 4 1.6 1.6 0.00 2.13 2.13 99 1009.9
20260510022819 6 354 0.0 1.6 0.00 2.13 2.13 99 1009.9
20260510022317 6 1 1.6 1.6 0.00 2.13 2.13 99 1009.8
20260510021817 6 14 1.6 1.6 0.00 2.13 2.13 99 1009.9
20260510021315 6 4 1.6 1.6 0.00 2.13 2.13 99 1010.0
20260510020811 6 5 1.6 1.6 0.00 2.13 2.13 99 1009.9
20260510020306 6 10 1.6 1.6 0.00 2.13 2.13 99 1010.1
20260510015802 6 355 0.0 0.0 0.00 2.13 2.13 99 1009.8
20260510015258 6 8 0.0 1.6 0.00 2.13 2.13 99 1009.6
20260510014753 6 5 1.6 1.6 0.00 2.13 2.13 99 1009.7
20260510014251 6 357 1.6 1.6 0.00 2.13 2.13 99 1009.9
20260510013747 6 356 0.0 0.0 0.00 2.13 2.13 99 1009.7
20260510013242 6 356 0.0 0.0 0.00 2.13 2.13 99 1009.8
20260510012737 7 2 0.0 0.0 0.00 2.13 2.13 99 1009.8
20260510012232 7 9 0.0 0.0 0.00 2.13 2.13 99 1009.7
20260510011727 7 15 1.6 1.6 0.00 2.13 2.13 99 1009.7
20260510011222 7 7 1.6 1.6 0.00 2.13 2.13 99 1009.7
20260510010719 7 359 1.6 1.6 0.00 2.13 2.13 99 1009.5
20260510010216 8 5 0.0 0.0 0.00 2.13 2.13 99 1009.4
20260510005713 8 9 0.0 1.6 0.00 2.13 2.13 99 1009.5
20260510005209 7 15 1.6 1.6 0.00 2.13 2.13 99 1009.3
20260510004707 8 0 0.0 0.0 0.00 2.13 2.13 99 1009.3
20260510004205 8 2 0.0 1.6 0.00 2.13 2.13 99 1009.2
20260510003702 8 353 0.0 1.6 0.00 2.13 2.13 99 1009.3
20260510003158 8 353 0.0 0.0 0.00 2.13 2.13 99 1009.3
20260510002657 9 357 0.0 0.0 0.00 2.13 2.13 99 1009.4
20260510002155 9 347 0.0 0.0 0.00 2.13 2.13 99 1009.1
20260510001652 9 343 0.0 0.0 0.00 2.13 2.13 99 1009.1
20260510001150 10 347 0.0 0.0 0.00 2.13 2.13 99 1009.1
20260510000651 10 331 1.6 1.6 0.00 2.13 2.13 99 1009.3
20260510000148 10 333 1.6 1.6 0.00 2.13 2.13 99 1008.9
20260509235645 10 336 1.6 1.6 0.00 2.13 2.13 99 1008.8
20260509235141 10 305 1.6 1.6 0.00 2.13 2.13 99 1008.6
20260509234637 10 309 1.6 1.6 0.00 2.13 2.13 99 1008.6
20260509234135 10 300 1.6 1.6 0.00 2.13 2.13 99 1008.4
20260509233633 10 298 1.6 3.2 0.00 2.13 2.13 99 1008.5
20260509233130 10 316 1.6 1.6 0.00 2.13 2.13 99 1008.5
20260509232626 10 264 1.6 3.2 0.00 2.13 2.13 99 1008.6
20260509232123 10 240 3.2 4.8 0.00 2.13 2.13 99 1008.7
20260509231619 10 272 1.6 3.2 0.00 2.13 2.13 99 1008.9
20260509231117 10 217 3.2 3.2 0.00 2.13 2.13 99 1008.7
20260509230614 10 256 6.4 8.0 0.00 2.13 2.13 99 1008.6
20260509230111 11 250 3.2 3.2 0.00 2.13 2.13 99 1008.4
20260509225607 11 202 3.2 3.2 0.00 2.13 2.13 99 1008.7
20260509225102 11 317 3.2 3.2 0.00 2.13 2.13 99 1008.6
20260509224557 11 247 3.2 3.2 0.00 2.13 2.13 98 1008.5
20260509224055 11 216 6.4 8.0 0.00 2.13 2.13 98 1008.2
20260509223552 11 244 4.8 4.8 0.00 2.13 2.13 98 1008.5
20260509223050 11 234 4.8 4.8 0.00 2.13 2.13 98 1008.1
20260509222545 11 192 4.8 4.8 0.00 2.13 2.13 99 1008.4
20260509222041 11 240 3.2 3.2 0.00 2.13 2.13 99 1008.6
20260509221537 11 291 1.6 1.6 0.00 2.13 2.13 99 1008.4
20260509221033 11 224 4.8 4.8 0.00 2.13 2.13 99 1008.5
20260509220529 11 268 4.8 4.8 0.00 2.13 2.13 99 1008.4
20260509220026 11 172 3.2 4.8 0.00 2.13 2.13 99 1008.7
20260509215521 11 154 1.6 3.2 0.00 2.13 2.13 99 1008.8
20260509215019 10 125 1.6 3.2 0.00 2.13 2.13 99 1009.0
20260509214516 10 293 4.8 4.8 0.00 2.13 2.13 99 1008.9
20260509214013 10 200 8.0 9.7 0.00 2.13 2.13 99 1009.2
20260509213509 10 191 4.8 4.8 0.00 2.13 2.13 99 1009.2
20260509213006 10 194 6.4 9.7 0.00 2.13 2.13 99 1009.0
20260509212503 11 236 4.8 4.8 0.00 2.13 2.13 99 1009.0
20260509212000 11 179 4.8 4.8 0.00 2.13 2.13 99 1009.0
20260509211455 11 215 8.0 8.0 0.00 2.13 2.13 98 1008.9
20260509210952 11 106 3.2 3.2 0.00 2.13 2.13 99 1009.1
20260509210449 10 285 1.6 1.6 0.00 2.13 2.13 99 1008.9
20260509205944 10 242 4.8 4.8 0.00 2.13 2.13 99 1009.1
20260509205439 10 290 4.8 4.8 0.00 2.13 2.13 99 1009.2
20260509204935 10 260 4.8 8.0 0.00 2.13 2.13 99 1009.1
20260509204432 10 180 6.4 8.0 0.00 2.13 2.13 99 1009.0
20260509203928 10 256 3.2 3.2 0.00 2.13 2.13 99 1009.2
20260509203424 10 244 4.8 8.0 0.00 2.13 2.13 99 1009.1
20260509202922 10 275 3.2 3.2 0.00 2.13 2.13 99 1009.2
20260509202418 10 101 1.6 1.6 0.00 2.13 2.13 99 1009.2
20260509201913 10 270 8.0 9.7 0.00 2.13 2.13 99 1009.3
20260509201408 10 228 8.0 11.3 0.00 2.13 2.13 99 1009.2
20260509200906 10 262 4.8 8.0 0.00 2.13 2.13 99 1009.4
20260509200405 10 272 9.7 11.3 0.00 2.13 2.13 99 1009.6
20260509195902 10 188 8.0 9.7 0.00 2.13 2.13 99 1009.3
20260509195402 10 146 4.8 4.8 0.00 2.13 2.13 99 1009.8
20260509194857 10 129 4.8 8.0 0.00 2.13 2.13 99 1009.8
20260509194353 10 9 3.2 3.2 0.00 2.13 2.13 99 1009.7
20260509193849 10 240 4.8 4.8 0.00 2.13 2.13 99 1009.7
20260509193344 10 161 4.8 4.8 0.00 2.13 2.13 99 1009.7
20260509192840 10 188 3.2 3.2 0.13 2.13 2.13 99 1009.7
20260509192336 10 180 1.6 3.2 0.13 2.13 2.13 99 1010.0
20260509191832 10 195 6.4 8.0 0.00 2.11 2.11 99 1009.8
20260509191328 10 250 6.4 8.0 0.00 2.11 2.11 99 1010.0
20260509190824 10 291 1.6 1.6 0.00 2.11 2.11 99 1009.8
20260509190321 10 230 4.8 4.8 0.00 2.11 2.11 99 1009.7
20260509185818 10 214 4.8 4.8 0.00 2.11 2.11 99 1010.0
20260509185309 10 293 3.2 3.2 0.18 2.11 2.11 99 1010.1
20260509184806 10 232 4.8 8.0 0.18 2.11 2.11 99 1009.9
20260509184304 10 261 3.2 4.8 0.00 2.08 2.08 99 1009.9
20260509183800 10 352 3.2 4.8 0.00 2.08 2.08 99 1009.8
20260509183255 10 299 1.6 1.6 0.00 2.08 2.08 99 1009.9
20260509182751 10 255 3.2 4.8 0.13 2.08 2.08 99 1010.1
20260509182249 10 155 3.2 3.2 0.13 2.08 2.08 99 1009.9
20260509181746 10 211 4.8 4.8 0.00 2.06 2.06 99 1009.9
20260509181243 10 172 4.8 8.0 0.00 2.06 2.06 99 1009.7
20260509180740 9 231 3.2 3.2 0.18 2.06 2.06 99 1009.9
20260509180236 9 250 6.4 8.0 0.18 2.06 2.06 99 1010.0
20260509175733 9 202 4.8 4.8 0.13 2.03 2.03 99 1009.9
20260509175229 10 205 4.8 4.8 0.18 2.01 2.01 99 1009.9
20260509174725 10 165 3.2 3.2 0.18 2.01 2.01 99 1009.8
20260509174221 10 154 3.2 3.2 0.13 1.98 1.98 99 1009.8
20260509173717 10 335 1.6 1.6 0.30 1.98 1.98 99 1010.1
20260509173213 10 294 1.6 1.6 0.18 1.96 1.96 99 1009.8
20260509172709 9 354 0.0 1.6 0.18 1.93 1.93 99 1009.8
20260509172206 9 297 1.6 1.6 0.18 1.93 1.93 99 1009.9
20260509171701 9 300 3.2 3.2 0.13 1.91 1.91 99 1009.8
20260509171157 9 37 1.6 1.6 0.13 1.91 1.91 99 1009.8
20260509170654 9 336 1.6 3.2 0.18 1.88 1.88 99 1009.8
20260509170151 9 62 1.6 1.6 0.18 1.88 1.88 99 1010.0
20260509165649 9 311 1.6 1.6 0.13 1.85 1.85 99 1009.9
20260509165144 9 356 0.0 1.6 0.30 1.85 1.85 99 1010.1
20260509164641 9 350 1.6 1.6 0.18 1.83 1.83 99 1009.9
20260509164136 9 18 0.0 1.6 0.13 1.80 1.80 99 1009.9
20260509163634 9 356 1.6 1.6 0.18 1.78 1.78 99 1010.1
20260509163130 9 248 1.6 3.2 0.30 1.78 1.78 99 1010.0
20260509162627 9 327 1.6 1.6 0.13 1.75 1.75 99 1010.0
20260509162123 9 351 1.6 3.2 0.18 1.73 1.73 99 1010.2
20260509161620 9 182 1.6 1.6 0.30 1.73 1.73 99 1010.4
20260509161115 9 206 4.8 4.8 0.30 1.70 1.70 99 1010.3
20260509160611 9 61 1.6 1.6 0.18 1.68 1.68 99 1010.1
20260509160106 9 39 1.6 1.6 0.13 1.65 1.65 99 1010.3
20260509155602 9 9 0.0 0.0 0.30 1.65 1.65 99 1010.3
20260509155059 9 13 1.6 1.6 0.36 1.63 1.63 99 1010.4
20260509154555 8 316 1.6 1.6 0.30 1.60 1.60 99 1010.4
20260509154052 8 219 3.2 3.2 0.13 1.57 1.57 99 1010.8
20260509153549 8 26 1.6 1.6 0.30 1.55 1.55 99 1010.7
20260509153046 8 358 0.0 0.0 0.48 1.55 1.55 99 1010.9
20260509152542 8 82 1.6 1.6 0.18 1.50 1.50 99 1011.2
20260509152040 8 7 0.0 1.6 0.30 1.47 1.47 99 1011.0
20260509151535 8 42 1.6 1.6 0.30 1.47 1.47 99 1011.2
20260509151033 8 334 1.6 1.6 0.30 1.45 1.45 99 1011.3
20260509150531 8 348 1.6 1.6 0.30 1.42 1.42 99 1010.9
20260509150029 8 350 0.0 0.0 0.30 1.40 1.40 99 1011.1
20260509145524 8 23 1.6 1.6 0.13 1.37 1.37 99 1011.2
20260509145019 8 353 0.0 1.6 0.43 1.37 1.37 99 1011.3
20260509144517 8 27 0.0 1.6 0.48 1.35 1.35 99 1011.2
20260509144014 8 305 1.6 3.2 0.36 1.30 1.30 99 1011.4
20260509143511 8 327 1.6 1.6 0.30 1.27 1.27 99 1011.3
20260509143009 8 3 0.0 0.0 0.13 1.24 1.24 99 1011.4
20260509142504 8 299 1.6 1.6 0.30 1.22 1.22 99 1011.3
20260509141959 8 347 1.6 1.6 0.30 1.19 1.19 99 1011.2
20260509141456 8 8 0.0 0.0 0.30 1.17 1.17 99 1011.0
20260509140953 8 343 1.6 1.6 0.30 1.14 1.14 99 1011.3
20260509140449 8 355 1.6 1.6 0.30 1.12 1.12 99 1011.1
20260509135948 8 13 1.6 1.6 0.30 1.09 1.09 99 1011.3
20260509135445 8 331 1.6 1.6 0.30 1.07 1.07 99 1011.0
20260509134942 8 36 1.6 1.6 0.30 1.04 1.04 99 1010.9
20260509134440 8 29 0.0 1.6 0.18 1.02 1.02 99 1011.1
20260509133937 8 27 0.0 1.6 0.18 0.99 0.99 99 1011.3
20260509133433 8 59 1.6 3.2 0.30 0.99 0.99 99 1011.0
20260509132932 8 333 1.6 3.2 0.30 0.97 0.97 99 1011.2
20260509132429 8 322 1.6 1.6 0.30 0.94 0.94 99 1011.2
20260509131926 7 358 0.0 0.0 0.30 0.91 0.91 99 1011.3
20260509131424 8 331 1.6 1.6 0.30 0.89 0.89 99 1011.2
20260509130920 7 289 1.6 1.6 0.13 0.86 0.86 99 1011.2
20260509130415 8 5 0.0 0.0 0.18 0.84 0.84 99 1011.2
20260509125912 8 0 0.0 1.6 0.30 0.84 0.84 99 1011.1
20260509125409 7 334 0.0 1.6 0.13 0.81 0.81 99 1011.3
20260509124905 8 313 1.6 1.6 0.18 0.79 0.79 99 1011.0
20260509124402 7 332 0.0 1.6 0.00 0.76 0.76 99 1011.0
20260509123900 7 3 0.0 0.0 0.00 0.76 0.76 99 1011.0
20260509123357 7 339 0.0 0.0 0.13 0.76 0.76 99 1010.9
20260509122852 7 352 0.0 0.0 0.13 0.76 0.76 99 1010.9
20260509122350 7 346 0.0 0.0 0.00 0.74 0.74 99 1011.0
20260509121846 7 349 0.0 0.0 0.00 0.74 0.74 99 1011.1
20260509121343 7 352 0.0 0.0 0.00 0.74 0.74 99 1011.1
20260509120842 7 12 1.6 1.6 0.00 0.74 0.74 99 1011.2
20260509120339 7 345 0.0 0.0 0.00 0.74 0.74 99 1011.3
20260509115837 7 333 1.6 1.6 0.00 0.74 0.74 99 1011.3
20260509115334 7 358 0.0 0.0 0.00 0.74 0.74 99 1011.2
20260509114832 7 351 0.0 0.0 0.00 0.74 0.74 99 1011.2
20260509114330 7 351 0.0 0.0 0.00 0.74 0.74 99 1011.3
20260509113829 7 350 0.0 0.0 0.00 0.74 0.74 99 1011.1
20260509113326 7 1 0.0 0.0 0.00 0.74 0.74 99 1011.6
20260509112822 7 345 0.0 0.0 0.00 0.74 0.74 99 1011.5
20260509112320 7 345 0.0 0.0 0.00 0.74 0.74 99 1011.5
20260509111817 7 345 0.0 0.0 0.00 0.74 0.74 99 1011.5
20260509111314 7 345 0.0 0.0 0.00 0.74 0.74 99 1011.4
20260509110811 7 344 0.0 0.0 0.00 0.74 0.74 99 1011.4
20260509110307 7 343 1.6 1.6 0.00 0.74 0.74 99 1011.4
20260509105806 7 348 0.0 0.0 0.00 0.74 0.74 99 1011.1
20260509105306 7 346 0.0 0.0 0.00 0.74 0.74 99 1011.2
20260509104800 7 347 0.0 0.0 0.00 0.74 0.74 99 1011.2
20260509104256 7 348 0.0 0.0 0.00 0.74 0.74 99 1011.2
20260509103755 7 350 0.0 0.0 0.00 0.74 0.74 99 1011.2
20260509103252 7 349 0.0 0.0 0.18 0.74 0.74 99 1011.2
20260509102750 7 349 0.0 0.0 0.18 0.74 0.74 99 1011.5
20260509102247 7 349 0.0 0.0 0.13 0.71 0.71 99 1011.5
20260509101743 7 349 0.0 0.0 0.13 0.71 0.71 99 1011.5
20260509101239 7 347 0.0 0.0 0.18 0.69 0.69 99 1011.6
20260509100737 7 341 0.0 0.0 0.18 0.69 0.69 99 1011.6
20260509100234 6 0 0.0 0.0 0.00 0.66 0.66 99 1011.4
20260509095730 7 6 0.0 0.0 0.00 0.66 0.66 99 1011.4
20260509095228 6 14 0.0 0.0 0.18 0.66 0.66 99 1011.4
20260509094725 6 2 0.0 0.0 0.18 0.66 0.66 99 1011.6
20260509094222 6 356 0.0 0.0 0.18 0.66 0.66 99 1011.4
20260509093720 6 343 0.0 1.6 0.00 0.64 0.64 99 1011.5
20260509093217 6 340 0.0 1.6 0.00 0.64 0.64 99 1011.2
20260509092715 6 349 0.0 0.0 0.00 0.64 0.64 99 1011.5
20260509092213 6 322 0.0 1.6 0.00 0.64 0.64 99 1011.2
20260509091710 6 343 0.0 0.0 0.00 0.64 0.64 99 1011.6
20260509091206 6 337 0.0 1.6 0.13 0.64 0.64 99 1011.5
20260509090704 6 335 1.6 1.6 0.13 0.64 0.64 99 1011.5
20260509090201 6 343 0.0 0.0 0.13 0.64 0.64 99 1011.4
20260509085659 6 349 0.0 0.0 0.00 0.61 0.61 99 1011.6
20260509085155 6 340 0.0 1.6 0.18 0.61 0.61 99 1011.5
20260509084652 6 340 0.0 1.6 0.18 0.61 0.61 99 1011.6
20260509084149 6 349 0.0 0.0 0.00 0.58 0.58 99 1011.4
20260509083647 6 13 0.0 0.0 0.00 0.58 0.58 99 1011.3
20260509083143 6 21 1.6 1.6 0.00 0.58 0.58 99 1011.4
20260509082640 6 6 0.0 0.0 0.13 0.58 0.58 99 1011.2
20260509082137 6 2 0.0 0.0 0.30 0.58 0.58 99 1011.4
20260509081634 6 354 0.0 1.6 0.13 0.53 0.53 99 1011.6
20260509081131 6 352 0.0 0.0 0.13 0.53 0.53 99 1011.3
20260509080629 6 353 0.0 0.0 0.30 0.53 0.53 99 1011.5
20260509080127 6 354 0.0 0.0 0.18 0.51 0.51 99 1011.6
20260509075625 6 357 0.0 0.0 0.13 0.48 0.48 99 1011.7
20260509075122 6 357 0.0 0.0 0.30 0.48 0.48 99 1011.9
20260509074618 6 356 0.0 0.0 0.30 0.46 0.46 99 1011.8
20260509074115 6 5 0.0 0.0 0.30 0.43 0.43 99 1011.7
20260509073612 6 2 0.0 0.0 0.30 0.41 0.41 99 1011.8
20260509073108 6 353 0.0 1.6 0.13 0.38 0.38 99 1011.7
20260509072605 6 352 0.0 0.0 0.18 0.36 0.36 99 1011.9
20260509072102 6 353 0.0 0.0 0.36 0.36 0.36 99 1011.8